TimeMST,TemperatureF,Dew PointF,Humidity,Sea Level PressureIn,VisibilityMPH,Wind Direction,Wind SpeedMPH,Gust SpeedMPH,PrecipitationIn,Events,Conditions,WindDirDegrees,DateUTC
12:58 AM,38.1,23.0,55,30.07,10.0,SSE,8.1,-,N/A,,Clear,150,2012-12-29 07:58:00
1:58 AM,40.5,23.0,50,30.06,10.0,SE,10.4,-,N/A,,Clear,140,2012-12-29 08:58:00
2:58 AM,39.9,23.4,52,30.07,10.0,SE,10.4,-,N/A,,Clear,140,2012-12-29 09:58:00
3:58 AM,41.0,23.4,50,30.05,10.0,SE,13.8,-,N/A,,Clear,140,2012-12-29 10:58:00
4:58 AM,39.4,22.8,52,30.05,10.0,ESE,10.4,-,N/A,,Clear,120,2012-12-29 11:58:00
5:58 AM,40.1,21.7,48,30.04,10.0,SE,10.4,-,N/A,,Clear,140,2012-12-29 12:58:00
6:58 AM,40.3,21.0,46,30.05,10.0,SSE,16.1,-,N/A,,Clear,150,2012-12-29 13:58:00
7:58 AM,41.5,20.1,42,30.08,10.0,SSE,16.1,-,N/A,,Clear,160,2012-12-29 14:58:00
8:58 AM,44.8,20.3,38,30.09,10.0,SSE,15.0,-,N/A,,Clear,150,2012-12-29 15:58:00
9:58 AM,50.0,18.7,29,30.09,10.0,SSE,18.4,27.6,N/A,,Clear,150,2012-12-29 16:58:00
10:58 AM,54.0,18.5,25,30.07,10.0,SE,18.4,-,N/A,,Clear,130,2012-12-29 17:58:00
11:58 AM,57.2,19.0,23,30.02,10.0,SSE,15.0,-,N/A,,Clear,150,2012-12-29 18:58:00
12:58 PM,59.9,20.1,22,29.94,10.0,SE,12.7,-,N/A,,Clear,140,2012-12-29 19:58:00
1:58 PM,62.1,20.1,20,29.92,10.0,SE,15.0,-,N/A,,Clear,130,2012-12-29 20:58:00
2:58 PM,63.5,20.8,20,29.90,10.0,SSE,6.9,-,N/A,,Clear,150,2012-12-29 21:58:00
3:58 PM,64.0,19.9,18,29.90,10.0,Variable,3.5,-,N/A,,Clear,0,2012-12-29 22:58:00
4:58 PM,61.3,21.2,21,29.91,10.0,East,3.5,-,N/A,,Clear,80,2012-12-29 23:58:00
5:58 PM,55.4,23.4,29,29.91,10.0,West,4.6,-,N/A,,Clear,270,2012-12-30 00:58:00
6:58 PM,53.4,22.1,30,29.92,10.0,NE,1.2,-,N/A,,Clear,40,2012-12-30 01:58:00
7:58 PM,50.7,25.2,37,29.93,10.0,Calm,Calm,-,N/A,,Clear,0,2012-12-30 02:58:00
8:08 PM,50.0,24.8,37,29.95,9.0,West,2.3,-,N/A,,Clear,280,2012-12-30 03:08:00
8:18 PM,50.0,23.0,35,29.95,7.0,West,3.5,-,N/A,,Clear,280,2012-12-30 03:18:00
8:28 PM,50.0,23.0,35,29.95,7.0,West,3.5,-,N/A,,Clear,280,2012-12-30 03:28:00
8:58 PM,49.1,24.4,38,29.92,7.0,West,4.6,-,N/A,,Clear,280,2012-12-30 03:58:00
9:03 PM,50.0,24.8,37,29.96,7.0,WSW,2.3,-,N/A,,Clear,240,2012-12-30 04:03:00
9:48 PM,46.4,24.8,43,29.96,10.0,SSW,4.6,-,N/A,,Clear,200,2012-12-30 04:48:00
9:58 PM,46.4,24.4,42,29.94,10.0,South,4.6,-,N/A,,Clear,180,2012-12-30 04:58:00
10:58 PM,45.3,25.0,45,29.94,10.0,SE,2.3,-,N/A,,Clear,140,2012-12-30 05:58:00
11:58 PM,44.2,24.4,46,29.91,10.0,SE,8.1,-,N/A,,Clear,140,2012-12-30 06:58:00